[[{"header":{"parameterUnit":"m.s-1","parameterCategory":1,"la1":30.2991,"la2":30.254,"lo1":-89.0895,"lo2":-89.0444,"dy":0.0017,"dx":0.0017,"nx":28,"ny":28,"refTime":"2023-10-22T09:00:00:Z","depth":0,"parameterNumber":2,"parameterNumberName":"U-component_of_WINDS"},"data":[0,0,0,0,0,0,0,0,0,0,0,0,0,0,0,0,0,0,0,0,0,0,0,0,0,0,0,0,0,0,0,0,0,0,0,0,0,0,0,0,0,0,0,0,0,0,0,0,0,0,0,0,0,0,0,0,0,0,0.2799,0.28,0,0.2887,0.2888,0.2889,0.2912,0.2911,0.2911,0.291,0.3002,0.3005,0.3008,0,0,0,0,0,0,0,0,0,0,0,0,0,0.265,0.2653,0.2799,0.28,0.2801,0.2887,0.2888,0.2889,0.2912,0.2911,0.2911,0.291,0.3001,0.3004,0.3008,0,0,0,0,0,0,0,0,0,0,0,0,0,0.2724,0.2654,0.2799,0.2823,0.2826,0.2887,0.2888,0.289,0.2912,0.2911,0.291,0.291,0.3,0.3004,0.3008,0.3052,0,0,0.3022,0.3024,0,0,0,0,0,0,0,0,0.272,0.273,0.2818,0.2821,0.2825,0.2888,0.287,0.2944,0.2912,0.2879,0.291,0.2909,0.2965,0.2972,0.299,0.3057,0.3061,0.3022,0.3025,0.3027,0.3028,0,0,0,0,0,0,0,0.2715,0.2726,0.2834,0.2819,0.2823,0.2829,0.2839,0.2884,0.2926,0.2882,0.2884,0.2894,0.2966,0.2986,0.2993,0.3062,0.3022,0.3026,0.3029,0.3031,0.3169,0.3169,0,0,0,0,0,0,0.2706,0.2722,0.2831,0.2836,0.2769,0.2832,0.2843,0.2868,0.2925,0.2933,0.2895,0.2895,0.2979,0.2987,0.2996,0.3051,0.3027,0.3031,0.3034,0.3168,0.3169,0.317,0,0,0,0,0,0,0.2702,0.2715,0.2827,0.278,0.2794,0.2836,0.2864,0.287,0.289,0.2935,0.2942,0.2907,0.2979,0.299,0.3038,0.3054,0.3033,0.3037,0.3166,0.3168,0.3169,0.3161,0,0,0,0,0,0,0.2698,0.2714,0.2731,0.278,0.2797,0.2868,0.2865,0.2873,0.2898,0.2899,0.2948,0.2956,0.2979,0.3031,0.3042,0.306,0.3041,0.3165,0.3167,0.3169,0.316,0.3162,0.3164,0,0,0,0,0,0.2693,0.2725,0.2731,0.2745,0.2819,0.2868,0.2878,0.2904,0.2899,0.2916,0.2945,0.2954,0.3051,0.3036,0.3049,0.3068,0.3164,0.3166,0.3169,0.3159,0.3162,0.3164,0,0,0,0,0,0,0.2677,0.2732,0.274,0.2789,0.2824,0.2872,0.2895,0.2906,0.2943,0.2942,0.2973,0.2984,0.303,0.3054,0.3037,0.3113,0.3108,0.3112,0.3096,0.3099,0.3101,0.3094,0.3044,0,0,0,0,0,0.268,0.2715,0.2761,0.28,0.2817,0.2853,0.2876,0.2892,0.293,0.2945,0.2977,0.3013,0.3052,0.3077,0.3115,0.3164,0.3175,0.3183,0.3185,0.3186,0.319,0.3218,0.3222,0.3177,0.3177,0.3177,0,0,0.2685,0.2719,0.274,0.2798,0.2827,0.2863,0.2865,0.2904,0.2931,0.2951,0.2998,0.3023,0.3066,0.3114,0.3137,0.3136,0.3205,0.3189,0.319,0.3193,0.322,0.3225,0.3228,0.3179,0.3178,0.3178,0,0,0.2713,0.2743,0.2778,0.2807,0.2851,0.2874,0.2883,0.293,0.2947,0.2995,0.301,0.3043,0.3109,0.3139,0.3162,0.3201,0.3211,0.3213,0.3223,0.3249,0.3253,0.3256,0.327,0.3274,0.3217,0.3217,0.3217,0,0.2714,0.2769,0.2795,0.2833,0.2858,0.2877,0.2913,0.294,0.2994,0.3011,0.3009,0.3091,0.3121,0.3177,0.3187,0.3205,0.3216,0.3207,0.325,0.3253,0.3257,0.327,0.3275,0.3216,0.3216,0.3216,0.3216,0,0.2768,0.2806,0.283,0.2881,0.2909,0.2945,0.2977,0.3003,0.3017,0.304,0.3089,0.3126,0.3171,0.3186,0.32,0.3244,0.3241,0.3244,0.3239,0.3261,0.3274,0.3279,0.3216,0.3216,0.3216,0.3216,0,0,0.2789,0.2854,0.2862,0.2885,0.2935,0.2965,0.3003,0.3047,0.3068,0.3104,0.3137,0.3192,0.3194,0.3221,0.3239,0.3262,0.3291,0.3262,0.3264,0.3266,0.3341,0.3338,0.3343,0.3297,0.3299,0.3299,0.3337,0,0.2823,0.2891,0.2915,0.2971,0.3006,0.3025,0.3058,0.3092,0.3115,0.3148,0.3174,0.3213,0.3213,0.323,0.3253,0.3282,0.3306,0.328,0.3328,0.3329,0.3316,0.335,0.3348,0.3381,0.3342,0.3343,0.3344,0,0.2872,0.2908,0.2967,0.3012,0.3028,0.3057,0.3099,0.3131,0.317,0.3185,0.3215,0.3231,0.3272,0.3264,0.332,0.3302,0.3323,0.334,0.3342,0.3347,0.3338,0.3356,0.3393,0.3398,0.3352,0.3351,0.3351,0,0.2881,0.2945,0.2988,0.3008,0.3061,0.3081,0.3104,0.3143,0.3167,0.3205,0.3221,0.3263,0.3285,0.3317,0.3344,0.3336,0.3398,0.3392,0.3412,0.3411,0.3424,0.3423,0.3464,0.3438,0.3438,0.3438,0.3438,0,0.2916,0.2951,0.2993,0.302,0.306,0.3088,0.3127,0.3151,0.3185,0.3217,0.3236,0.3266,0.33,0.3334,0.3356,0.3399,0.3409,0.3422,0.3428,0.3421,0.3419,0.3435,0.3433,0.3439,0.3439,0.3439,0.3438,0,0.2932,0.2962,0.301,0.3057,0.307,0.3097,0.3137,0.3164,0.3188,0.3228,0.3239,0.3277,0.3318,0.3348,0.3402,0.3416,0.3462,0.3468,0.3449,0.3451,0.3469,0.3467,0.3522,0.353,0.3499,0.3499,0.3499,0,0.2953,0.298,0.303,0.3052,0.3075,0.3111,0.3137,0.3166,0.3191,0.3238,0.3259,0.3301,0.3336,0.3402,0.3434,0.3475,0.3481,0.3498,0.3488,0.348,0.3481,0.3479,0.3482,0.3499,0.3499,0.35,0.35,0,0.2986,0.2999,0.3034,0.3075,0.3105,0.3138,0.3172,0.319,0.3225,0.3252,0.3294,0.3322,0.3376,0.3418,0.3462,0.3487,0.3499,0.3503,0.3509,0.3502,0.349,0.3496,0.3452,0.3501,0.3501,0.3501,0.3501,0.3501,0.3005,0.303,0.3068,0.3107,0.3136,0.3167,0.3194,0.3222,0.3257,0.3303,0.3318,0.3361,0.34,0.346,0.3485,0.352,0.352,0.3529,0.3532,0.3533,0.3533,0.3484,0.3528,0.3528,0.3528,0.3528,0.3528,0,0.3038,0.3064,0.3099,0.3146,0.3177,0.3185,0.3223,0.3249,0.3286,0.3321,0.3355,0.3403,0.3444,0.348,0.3522,0.3543,0.355,0.3553,0.3552,0.3557,0.3531,0.3521,0.3547,0.3547,0.3547,0.3547,0.3547,0.3547,0.3059,0.3102,0.312,0.3177,0.3203,0.3245,0.3266,0.3295,0.3323,0.3375,0.3409,0.3432,0.3467,0.3512,0.355,0.3559,0.3574,0.3576,0.3586,0.3561,0.3559,0.3557,0.3547,0.3579,0.3579,0.361,0.361,0.361]},{"header":{"parameterUnit":"m.s-1","parameterCategory":1,"la1":30.2991,"la2":30.254,"lo1":-89.0895,"lo2":-89.0444,"dy":0.0017,"dx":0.0017,"nx":28,"ny":28,"refTime":"2023-10-22T09:00:00:Z","depth":0,"parameterNumber":3,"parameterNumberName":"V-component_of_WINDS"},"data":[0,0,0,0,0,0,0,0,0,0,0,0,0,0,0,0,0,0,0,0,0,0,0,0,0,0,0,0,0,0,0,0,0,0,0,0,0,0,0,0,0,0,0,0,0,0,0,0,0,0,0,0,0,0,0,0,0,0,0.685,0.685,0,0.6798,0.6797,0.6796,0.6745,0.6744,0.6744,0.6743,0.6688,0.6687,0.6686,0,0,0,0,0,0,0,0,0,0,0,0,0,0.6906,0.6906,0.685,0.685,0.6849,0.6798,0.6797,0.6796,0.6745,0.6744,0.6743,0.6743,0.6688,0.6687,0.6686,0,0,0,0,0,0,0,0,0,0,0,0,0,0.6871,0.6905,0.6851,0.6817,0.6814,0.6798,0.6797,0.6796,0.6745,0.6744,0.6743,0.6742,0.6689,0.6687,0.6686,0.6698,0,0,0.6682,0.6682,0,0,0,0,0,0,0,0,0.6873,0.6869,0.6823,0.682,0.6816,0.6777,0.6796,0.6763,0.6745,0.6771,0.6743,0.6742,0.6718,0.6714,0.6707,0.6696,0.6693,0.6682,0.6681,0.6681,0.668,0,0,0,0,0,0,0,0.6875,0.6871,0.6829,0.6822,0.6818,0.6805,0.6799,0.679,0.6751,0.6769,0.6765,0.676,0.6716,0.6708,0.6705,0.6693,0.6682,0.6681,0.668,0.668,0.6689,0.669,0,0,0,0,0,0,0.6883,0.6873,0.6831,0.6828,0.6842,0.6805,0.6798,0.679,0.6751,0.6744,0.676,0.6757,0.6711,0.6707,0.6703,0.6715,0.6681,0.668,0.6679,0.6688,0.669,0.6691,0,0,0,0,0,0,0.6884,0.688,0.6833,0.6849,0.6843,0.6805,0.6797,0.679,0.6782,0.6745,0.6737,0.676,0.671,0.6705,0.67,0.6712,0.6679,0.6678,0.6687,0.6689,0.669,0.674,0,0,0,0,0,0,0.6886,0.6881,0.6885,0.685,0.6842,0.6832,0.6798,0.6789,0.678,0.6775,0.6742,0.6735,0.6709,0.6702,0.6699,0.671,0.6677,0.6686,0.6688,0.669,0.6737,0.6743,0.6748,0,0,0,0,0,0.6888,0.6901,0.6885,0.6881,0.6847,0.6832,0.6828,0.6797,0.6781,0.6785,0.6761,0.6736,0.6712,0.6702,0.6698,0.6709,0.6685,0.6687,0.669,0.6734,0.6741,0.6747,0,0,0,0,0,0,0.6937,0.6895,0.6878,0.6879,0.686,0.6824,0.6828,0.6806,0.679,0.6787,0.6749,0.6742,0.6742,0.6725,0.6715,0.6719,0.6695,0.6696,0.673,0.6737,0.6742,0.6746,0.6676,0,0,0,0,0,0.6949,0.6941,0.6904,0.6909,0.69,0.6866,0.6858,0.6837,0.6815,0.6806,0.6782,0.6762,0.6749,0.6742,0.6729,0.6734,0.6726,0.6739,0.6745,0.675,0.6751,0.6754,0.6759,0.6698,0.6698,0.6698,0,0,0.6971,0.6947,0.6944,0.6918,0.6901,0.6893,0.6859,0.6853,0.6847,0.6805,0.68,0.6781,0.6756,0.6757,0.6756,0.6742,0.6767,0.6753,0.6757,0.6756,0.6757,0.6762,0.6768,0.67,0.6699,0.6699,0,0,0.7009,0.699,0.6992,0.6975,0.6949,0.6926,0.6927,0.6894,0.6881,0.6874,0.6843,0.6835,0.6815,0.6798,0.6787,0.682,0.6796,0.6816,0.6845,0.6847,0.6852,0.6856,0.6868,0.6873,0.6818,0.6818,0.6818,0,0.704,0.7028,0.6996,0.6991,0.6981,0.6943,0.6945,0.693,0.6901,0.6895,0.688,0.6854,0.6835,0.6831,0.6839,0.6831,0.6831,0.682,0.6854,0.6858,0.6861,0.6872,0.6877,0.6821,0.682,0.682,0.682,0,0.7068,0.7061,0.7065,0.7039,0.7029,0.7028,0.6995,0.6989,0.6968,0.6947,0.6941,0.6916,0.6897,0.6895,0.6874,0.6889,0.6881,0.6861,0.6836,0.687,0.688,0.6884,0.6825,0.6824,0.6823,0.6822,0,0,0.7135,0.7091,0.7094,0.7081,0.705,0.7043,0.7041,0.7023,0.7018,0.6999,0.6996,0.698,0.6962,0.6949,0.6926,0.6929,0.6956,0.6908,0.6907,0.6918,0.6971,0.6987,0.6993,0.6941,0.6941,0.6942,0.6974,0,0.7168,0.7161,0.7132,0.7134,0.7127,0.7091,0.7089,0.7069,0.7049,0.704,0.7018,0.7007,0.6983,0.6976,0.6976,0.6953,0.6967,0.695,0.6938,0.6938,0.6946,0.6998,0.7014,0.7045,0.6977,0.6978,0.6978,0,0.7205,0.719,0.7191,0.7161,0.7156,0.7155,0.7136,0.7128,0.7105,0.7091,0.7077,0.7052,0.7047,0.7024,0.7017,0.7006,0.6999,0.6987,0.6988,0.6986,0.696,0.6998,0.7054,0.706,0.6984,0.6983,0.6983,0,0.7255,0.7234,0.7232,0.7223,0.7187,0.7187,0.7172,0.7148,0.714,0.7123,0.7117,0.7101,0.7092,0.7079,0.705,0.7036,0.7047,0.7021,0.7035,0.7036,0.7039,0.7039,0.7096,0.7034,0.7034,0.7034,0.7034,0,0.7295,0.7297,0.7254,0.7253,0.7255,0.7221,0.7224,0.7205,0.7185,0.718,0.7147,0.7143,0.7105,0.7096,0.7073,0.7071,0.7067,0.7056,0.705,0.7059,0.706,0.7054,0.7051,0.7035,0.7035,0.7034,0.7034,0,0.735,0.7322,0.7317,0.7284,0.7276,0.7279,0.725,0.7248,0.7226,0.722,0.7217,0.7183,0.7171,0.7141,0.7121,0.7106,0.711,0.7099,0.7118,0.7115,0.7131,0.713,0.7186,0.7192,0.7126,0.7126,0.7127,0,0.7378,0.7379,0.7346,0.7341,0.7327,0.7318,0.731,0.7277,0.7269,0.7243,0.7244,0.723,0.7217,0.72,0.7174,0.7159,0.7147,0.7167,0.7144,0.7154,0.7148,0.7148,0.7149,0.7173,0.7174,0.7174,0.7175,0,0.743,0.7416,0.7405,0.7389,0.7379,0.7365,0.7349,0.7346,0.7309,0.7301,0.7289,0.7279,0.726,0.7246,0.7227,0.7211,0.7187,0.7183,0.7185,0.7195,0.7206,0.7201,0.7133,0.7181,0.7181,0.718,0.718,0.718,0.7473,0.7472,0.7449,0.7438,0.7423,0.7408,0.7405,0.7383,0.7373,0.7354,0.7335,0.7326,0.7303,0.7275,0.7261,0.7253,0.724,0.7244,0.7245,0.7246,0.7251,0.7207,0.7249,0.7249,0.7249,0.7249,0.7248,0,0.7524,0.7507,0.7497,0.7476,0.7467,0.7446,0.7427,0.7421,0.7413,0.7394,0.7382,0.7369,0.7356,0.7328,0.7313,0.7312,0.73,0.7309,0.7309,0.7306,0.7263,0.7262,0.7318,0.7318,0.7318,0.7318,0.7318,0.7318,0.7549,0.7548,0.7531,0.7522,0.7505,0.7496,0.7487,0.7474,0.7459,0.7445,0.7435,0.7417,0.7395,0.7378,0.7365,0.7357,0.7353,0.7365,0.7354,0.7315,0.7308,0.7302,0.7302,0.7365,0.7365,0.7398,0.7398,0.7398]}]]